Find Starlink 37748

NORAD ID: 100416 Int'l Des: 2026-192 Owner: SPXS Country: US Constellation: starlink operational

Aktuelle Ansicht

3D-Globus wird geladen...

About Starlink 37748

Starlink 37748 (NORAD 100416) is a starlink constellation satellite launched Aug 21, 2026 by SPXS of US. with a mass of 575.00 kg.

Nächste Überflüge

Passes for default location (London). Set your location on the main map for personalized predictions.

Höhenverlauf

Loading altitude history...

Zweizeiliger Elementsatz

1 A0416U 26192N 26251.30946641 .01043667 00000-0 49595-2 0 9991
2 A0416 53.1588 5.4978 0001862 128.4684 231.6506 15.80013628 4063
Epoch: 8. Sept. 2026 • Age: 11 hours

Aktueller Status

Höhe 333.3 km
Apogäum / Perigäum N/A
Geschwindigkeit 7.72 km/s
Subsatellitenpunkt 52.60°N, 158.6°W
Startdatum 21. Aug. 2026
Alter 18 days
Typ internet

Technische Details

Klassifizierung Payload
Masse 575.00 kg
Trockenmasse 530.00 kg
Gesamtmasse 575.00 kg
Länge 0.30 m
Durchmesser 4.10 m
Spannweite 29.00 m
Form Box + pan
Hersteller SPXS
Bus-Typ Starlink V2MO
Phasenstatus In Orbit
Besitzer/Staat SPXS/US

Most Searched